Location: Crescent
(42.8242°N, 73.7329°W)
Time: 17:23:51
(UTC+00:00)

Vanguard 1 - Pass Details

Date: 21 February 2026
Orbit: 653 x 3818 km, 34.2° (Epoch: 5 March)

Event Time Altitude Azimuth Distance (km) Brightness Sun altitude
Rises 03:22:32 0° 278° (W) 7,164 14.9 -50.4°
Reaches altitude 10° 03:29:18 10° 263° (W) 6,539 14.4 -51.2°
Maximum altitude 03:42:16 19° 227° (SW) 6,102 13.9 -52.7°
Enters shadow 03:46:48 18° 214° (SSW) 6,197 13.9 -53.2°
Drops below altitude 10° 03:55:47 10° 190° (S) 6,715 - -54.1°
Sets 04:03:10 0° 175° (S) 7,394 - -54.7°
